User: anonymous   Login
Location: Ash Swamp
(41.5170°N, 74.6157°W)
Time: 02:04:58
(UTC+00:00)
Language:

Okean 2 Rocket - Orbit

View from above orbital plane
View from above orbital plane
View from above satellite
View from above satellite

Ground track
Ground track

The orbit data is extracted from the following two-line orbital elements,

1 20511U 90018B   20272.50431851 +.00000096 +00000-0 +96151-5 0  9999
2 20511 082.5198 277.1678 0018541 136.3324 336.7806 14.80048957628356
Epoch (UTC): 28 September 2020 12:06:13
Eccentricity: 0.0018541
inclination: 82.5198°
perigee height: 616 km
apogee height: 642 km
right ascension of ascending node: 277.1678°
argument of perigee: 136.3324°
revolutions per day: 14.80048957
mean anomaly at epoch: 336.7806°
orbit number at epoch: 62835

The dashed part of the orbit path shows where the satellite is in the earth's shadow,  

DLR